Location: Bieg
(49.3499°N, 10.3835°E)
Time: 02:18:07
(UTC+00:00)

MSX - Pass Details

Date: 23 May 2024
Orbit: 893 x 906 km, 99.0° (Epoch: 12 June)

Event Time Altitude Azimuth Distance (km) Brightness Sun altitude
Rises 02:02:50 0° 11° (N) 3,527 8.1 -10.7°
Reaches altitude 10° 02:05:19 10° 6° (N) 2,580 7.2 -10.5°
Maximum altitude 02:10:48 48° 294° (WNW) 1,153 4.3 -9.9°
Enters shadow 02:15:56 12° 222° (SW) 2,442 5.4 -9.3°
